owner,sensor,date,latitude,longitude,sea_surface_height_above_sea_level,qcFlag 
TCOON,ioos:station:TCOON:005:1,2017-06-01T00:18:00Z,27.6346,-97.2370,1.147,1111122 
TCOON,ioos:station:TCOON:005:1,2017-06-01T01:18:00Z,27.6346,-97.2370,1.134,1111122 
TCOON,ioos:station:TCOON:005:1,2017-06-01T02:18:00Z,27.6346,-97.2370,1.124,1111122 
TCOON,ioos:station:TCOON:005:1,2017-06-01T03:18:00Z,27.6346,-97.2370,1.142,1111122 
TCOON,ioos:station:TCOON:005:1,2017-06-01T04:18:00Z,27.6346,-97.2370,1.129,1111122 
TCOON,ioos:station:TCOON:005:1,2017-06-01T05:18:00Z,27.6346,-97.2370,1.118,1111122 
TCOON,ioos:station:TCOON:005:1,2017-06-01T06:18:00Z,27.6346,-97.2370,1.106,1111122 
TCOON,ioos:station:TCOON:005:1,2017-06-01T07:18:00Z,27.6346,-97.2370,1.097,1111122 
TCOON,ioos:station:TCOON:005:1,2017-06-01T08:18:00Z,27.6346,-97.2370,1.085,1111122 
TCOON,ioos:station:TCOON:005:1,2017-06-01T09:18:00Z,27.6346,-97.2370,1.071,1111122 
TCOON,ioos:station:TCOON:005:1,2017-06-01T10:18:00Z,27.6346,-97.2370,1.057,1111122 
TCOON,ioos:station:TCOON:005:1,2017-06-01T11:18:00Z,27.6346,-97.2370,1.045,1111122 
TCOON,ioos:station:TCOON:005:1,2017-06-01T12:18:00Z,27.6346,-97.2370,1.045,1111122 
TCOON,ioos:station:TCOON:005:1,2017-06-01T13:18:00Z,27.6346,-97.2370,1.051,1111122 
TCOON,ioos:station:TCOON:005:1,2017-06-01T14:18:00Z,27.6346,-97.2370,1.052,1111122 
TCOON,ioos:station:TCOON:005:1,2017-06-01T15:18:00Z,27.6346,-97.2370,1.057,1111122 
TCOON,ioos:station:TCOON:005:1,2017-06-01T16:18:00Z,27.6346,-97.2370,1.072,1111122 
TCOON,ioos:station:TCOON:005:1,2017-06-01T17:18:00Z,27.6346,-97.2370,1.113,1111122 
TCOON,ioos:station:TCOON:005:1,2017-06-01T18:18:00Z,27.6346,-97.2370,1.128,1111122 
TCOON,ioos:station:TCOON:005:1,2017-06-01T19:18:00Z,27.6346,-97.2370,1.143,1111122 
TCOON,ioos:station:TCOON:005:1,2017-06-01T20:18:00Z,27.6346,-97.2370,1.149,1111122 
TCOON,ioos:station:TCOON:005:1,2017-06-01T21:18:00Z,27.6346,-97.2370,1.145,1111122 
TCOON,ioos:station:TCOON:005:1,2017-06-01T22:18:00Z,27.6346,-97.2370,1.145,1111122 
TCOON,ioos:station:TCOON:005:1,2017-06-01T23:18:00Z,27.6346,-97.2370,1.139,1111122 
TCOON,ioos:station:TCOON:005:1,2017-06-02T00:18:00Z,27.6346,-97.2370,1.133,1111122 
TCOON,ioos:station:TCOON:005:1,2017-06-02T01:18:00Z,27.6346,-97.2370,1.12,1111122 
TCOON,ioos:station:TCOON:005:1,2017-06-02T02:18:00Z,27.6346,-97.2370,1.112,1111122 
TCOON,ioos:station:TCOON:005:1,2017-06-02T03:18:00Z,27.6346,-97.2370,1.11,1111122 
TCOON,ioos:station:TCOON:005:1,2017-06-02T04:18:00Z,27.6346,-97.2370,1.109,1111122 
TCOON,ioos:station:TCOON:005:1,2017-06-02T05:18:00Z,27.6346,-97.2370,1.106,1111122 
TCOON,ioos:station:TCOON:005:1,2017-06-02T06:18:00Z,27.6346,-97.2370,1.106,1111122 
TCOON,ioos:station:TCOON:005:1,2017-06-02T07:18:00Z,27.6346,-97.2370,1.102,1111122 
TCOON,ioos:station:TCOON:005:1,2017-06-02T08:18:00Z,27.6346,-97.2370,1.102,1111122 
TCOON,ioos:station:TCOON:005:1,2017-06-02T09:18:00Z,27.6346,-97.2370,1.097,1111122 
TCOON,ioos:station:TCOON:005:1,2017-06-02T10:18:00Z,27.6346,-97.2370,1.093,1111122 
TCOON,ioos:station:TCOON:005:1,2017-06-02T11:18:00Z,27.6346,-97.2370,1.09,1111122 
TCOON,ioos:station:TCOON:005:1,2017-06-02T12:18:00Z,27.6346,-97.2370,1.09,1111122 
TCOON,ioos:station:TCOON:005:1,2017-06-02T13:18:00Z,27.6346,-97.2370,1.088,1111122 
TCOON,ioos:station:TCOON:005:1,2017-06-02T14:18:00Z,27.6346,-97.2370,1.096,1111122 
TCOON,ioos:station:TCOON:005:1,2017-06-02T15:18:00Z,27.6346,-97.2370,1.101,1111122 
TCOON,ioos:station:TCOON:005:1,2017-06-02T16:12:00Z,27.6346,-97.2370,1.107,1111122 
TCOON,ioos:station:TCOON:005:1,2017-06-02T17:18:00Z,27.6346,-97.2370,1.117,1111122 
TCOON,ioos:station:TCOON:005:1,2017-06-02T18:18:00Z,27.6346,-97.2370,1.122,1111122 
TCOON,ioos:station:TCOON:005:1,2017-06-02T19:18:00Z,27.6346,-97.2370,1.132,1111122 
TCOON,ioos:station:TCOON:005:1,2017-06-02T20:18:00Z,27.6346,-97.2370,1.136,1111122 
TCOON,ioos:station:TCOON:005:1,2017-06-02T21:18:00Z,27.6346,-97.2370,1.139,1111122 
TCOON,ioos:station:TCOON:005:1,2017-06-02T22:18:00Z,27.6346,-97.2370,1.131,1111122 
TCOON,ioos:station:TCOON:005:1,2017-06-02T23:18:00Z,27.6346,-97.2370,1.121,1111122 
TCOON,ioos:station:TCOON:005:1,2017-06-03T00:12:00Z,27.6346,-97.2370,1.119,1111122 
TCOON,ioos:station:TCOON:005:1,2017-06-03T01:18:00Z,27.6346,-97.2370,1.113,1111122 
TCOON,ioos:station:TCOON:005:1,2017-06-03T02:18:00Z,27.6346,-97.2370,1.109,1111122 
TCOON,ioos:station:TCOON:005:1,2017-06-03T03:12:00Z,27.6346,-97.2370,1.112,1111122 
TCOON,ioos:station:TCOON:005:1,2017-06-03T04:18:00Z,27.6346,-97.2370,1.107,1111122 
TCOON,ioos:station:TCOON:005:1,2017-06-03T05:18:00Z,27.6346,-97.2370,1.108,1111122 
TCOON,ioos:station:TCOON:005:1,2017-06-03T06:18:00Z,27.6346,-97.2370,1.11,1111122 
TCOON,ioos:station:TCOON:005:1,2017-06-03T07:18:00Z,27.6346,-97.2370,1.114,1111122 
TCOON,ioos:station:TCOON:005:1,2017-06-03T08:18:00Z,27.6346,-97.2370,1.111,1111122 
TCOON,ioos:station:TCOON:005:1,2017-06-03T09:18:00Z,27.6346,-97.2370,1.116,1111122 
TCOON,ioos:station:TCOON:005:1,2017-06-03T10:18:00Z,27.6346,-97.2370,1.117,1111122 
TCOON,ioos:station:TCOON:005:1,2017-06-03T11:18:00Z,27.6346,-97.2370,1.119,1111122 
TCOON,ioos:station:TCOON:005:1,2017-06-03T12:18:00Z,27.6346,-97.2370,1.121,1111122 
TCOON,ioos:station:TCOON:005:1,2017-06-03T13:18:00Z,27.6346,-97.2370,1.118,1111122 
TCOON,ioos:station:TCOON:005:1,2017-06-03T14:18:00Z,27.6346,-97.2370,1.119,1111122 
TCOON,ioos:station:TCOON:005:1,2017-06-03T15:18:00Z,27.6346,-97.2370,1.119,1111122 
TCOON,ioos:station:TCOON:005:1,2017-06-03T16:18:00Z,27.6346,-97.2370,1.117,1111122 
TCOON,ioos:station:TCOON:005:1,2017-06-03T17:18:00Z,27.6346,-97.2370,1.119,1111122 
TCOON,ioos:station:TCOON:005:1,2017-06-03T18:18:00Z,27.6346,-97.2370,1.121,1111122 
TCOON,ioos:station:TCOON:005:1,2017-06-03T19:18:00Z,27.6346,-97.2370,1.129,1111122 
TCOON,ioos:station:TCOON:005:1,2017-06-03T20:18:00Z,27.6346,-97.2370,1.132,1111122 
TCOON,ioos:station:TCOON:005:1,2017-06-03T21:18:00Z,27.6346,-97.2370,1.134,1111122 
TCOON,ioos:station:TCOON:005:1,2017-06-03T22:18:00Z,27.6346,-97.2370,1.125,1111122 
TCOON,ioos:station:TCOON:005:1,2017-06-03T23:18:00Z,27.6346,-97.2370,1.115,1111122 
TCOON,ioos:station:TCOON:005:1,2017-06-04T00:18:00Z,27.6346,-97.2370,1.102,1111122 
TCOON,ioos:station:TCOON:005:1,2017-06-04T01:18:00Z,27.6346,-97.2370,1.09,1111122 
TCOON,ioos:station:TCOON:005:1,2017-06-04T02:18:00Z,27.6346,-97.2370,1.072,1111122 
TCOON,ioos:station:TCOON:005:1,2017-06-04T03:18:00Z,27.6346,-97.2370,1.075,1111122 
TCOON,ioos:station:TCOON:005:1,2017-06-04T04:18:00Z,27.6346,-97.2370,1.078,1111122 
TCOON,ioos:station:TCOON:005:1,2017-06-04T05:18:00Z,27.6346,-97.2370,1.077,1111122 
TCOON,ioos:station:TCOON:005:1,2017-06-04T06:18:00Z,27.6346,-97.2370,1.081,1111122 
TCOON,ioos:station:TCOON:005:1,2017-06-04T07:18:00Z,27.6346,-97.2370,1.081,1111122 
TCOON,ioos:station:TCOON:005:1,2017-06-04T08:18:00Z,27.6346,-97.2370,1.093,1111122 
TCOON,ioos:station:TCOON:005:1,2017-06-04T09:18:00Z,27.6346,-97.2370,1.102,1111122 
TCOON,ioos:station:TCOON:005:1,2017-06-04T10:18:00Z,27.6346,-97.2370,1.11,1111122 
TCOON,ioos:station:TCOON:005:1,2017-06-04T11:18:00Z,27.6346,-97.2370,1.115,1111122 
TCOON,ioos:station:TCOON:005:1,2017-06-04T12:18:00Z,27.6346,-97.2370,1.12,1111122 
TCOON,ioos:station:TCOON:005:1,2017-06-04T13:18:00Z,27.6346,-97.2370,1.121,1111122 
TCOON,ioos:station:TCOON:005:1,2017-06-04T14:12:00Z,27.6346,-97.2370,1.119,1111122 
TCOON,ioos:station:TCOON:005:1,2017-06-04T15:18:00Z,27.6346,-97.2370,1.121,1111122 
TCOON,ioos:station:TCOON:005:1,2017-06-04T16:18:00Z,27.6346,-97.2370,1.119,1111122 
TCOON,ioos:station:TCOON:005:1,2017-06-04T17:18:00Z,27.6346,-97.2370,1.122,1111122 
TCOON,ioos:station:TCOON:005:1,2017-06-04T18:18:00Z,27.6346,-97.2370,1.134,1111122 
TCOON,ioos:station:TCOON:005:1,2017-06-04T19:18:00Z,27.6346,-97.2370,1.125,1111122 
TCOON,ioos:station:TCOON:005:1,2017-06-04T20:18:00Z,27.6346,-97.2370,1.122,1111122 
TCOON,ioos:station:TCOON:005:1,2017-06-04T21:18:00Z,27.6346,-97.2370,1.108,1111122 
TCOON,ioos:station:TCOON:005:1,2017-06-04T22:18:00Z,27.6346,-97.2370,1.1,1111122 
TCOON,ioos:station:TCOON:005:1,2017-06-04T23:18:00Z,27.6346,-97.2370,1.082,1111122 
TCOON,ioos:station:TCOON:005:1,2017-06-05T00:18:00Z,27.6346,-97.2370,1.081,1111122 
TCOON,ioos:station:TCOON:005:1,2017-06-05T01:18:00Z,27.6346,-97.2370,1.075,1111122 
TCOON,ioos:station:TCOON:005:1,2017-06-05T02:18:00Z,27.6346,-97.2370,1.064,1111122 
TCOON,ioos:station:TCOON:005:1,2017-06-05T03:18:00Z,27.6346,-97.2370,1.054,1111122 
TCOON,ioos:station:TCOON:005:1,2017-06-05T04:18:00Z,27.6346,-97.2370,1.07,1111122 
TCOON,ioos:station:TCOON:005:1,2017-06-05T05:18:00Z,27.6346,-97.2370,1.061,1111122 
TCOON,ioos:station:TCOON:005:1,2017-06-05T06:18:00Z,27.6346,-97.2370,1.052,1111122 
TCOON,ioos:station:TCOON:005:1,2017-06-05T07:18:00Z,27.6346,-97.2370,1.061,1111122 
TCOON,ioos:station:TCOON:005:1,2017-06-05T08:18:00Z,27.6346,-97.2370,1.072,1111122 
TCOON,ioos:station:TCOON:005:1,2017-06-05T09:18:00Z,27.6346,-97.2370,1.089,1111122 
TCOON,ioos:station:TCOON:005:1,2017-06-05T10:18:00Z,27.6346,-97.2370,1.108,1111122 
TCOON,ioos:station:TCOON:005:1,2017-06-05T11:18:00Z,27.6346,-97.2370,1.125,1111122 
TCOON,ioos:station:TCOON:005:1,2017-06-05T12:18:00Z,27.6346,-97.2370,1.137,1111122 
TCOON,ioos:station:TCOON:005:1,2017-06-05T13:18:00Z,27.6346,-97.2370,1.144,1111122 
TCOON,ioos:station:TCOON:005:1,2017-06-05T14:18:00Z,27.6346,-97.2370,1.156,1111122 
TCOON,ioos:station:TCOON:005:1,2017-06-05T15:18:00Z,27.6346,-97.2370,1.15,1111122 
TCOON,ioos:station:TCOON:005:1,2017-06-05T16:18:00Z,27.6346,-97.2370,1.159,1111122 
TCOON,ioos:station:TCOON:005:1,2017-06-05T17:18:00Z,27.6346,-97.2370,1.169,1111122 
TCOON,ioos:station:TCOON:005:1,2017-06-05T18:18:00Z,27.6346,-97.2370,1.17,1111122 
TCOON,ioos:station:TCOON:005:1,2017-06-05T19:18:00Z,27.6346,-97.2370,1.17,1111122 
TCOON,ioos:station:TCOON:005:1,2017-06-05T20:18:00Z,27.6346,-97.2370,1.147,1111122 
TCOON,ioos:station:TCOON:005:1,2017-06-05T21:18:00Z,27.6346,-97.2370,1.131,1111122 
TCOON,ioos:station:TCOON:005:1,2017-06-05T22:18:00Z,27.6346,-97.2370,1.149,1111122 
TCOON,ioos:station:TCOON:005:1,2017-06-05T23:18:00Z,27.6346,-97.2370,1.144,1111122 
TCOON,ioos:station:TCOON:005:1,2017-06-06T00:18:00Z,27.6346,-97.2370,1.136,1111122 
TCOON,ioos:station:TCOON:005:1,2017-06-06T01:18:00Z,27.6346,-97.2370,1.123,1111122 
TCOON,ioos:station:TCOON:005:1,2017-06-06T02:18:00Z,27.6346,-97.2370,1.115,1111122 
TCOON,ioos:station:TCOON:005:1,2017-06-06T03:18:00Z,27.6346,-97.2370,1.096,1111122 
TCOON,ioos:station:TCOON:005:1,2017-06-06T04:18:00Z,27.6346,-97.2370,1.088,1111122 
TCOON,ioos:station:TCOON:005:1,2017-06-06T05:18:00Z,27.6346,-97.2370,1.078,1111122 
TCOON,ioos:station:TCOON:005:1,2017-06-06T06:18:00Z,27.6346,-97.2370,1.082,1111122 
TCOON,ioos:station:TCOON:005:1,2017-06-06T07:18:00Z,27.6346,-97.2370,1.084,1111122 
TCOON,ioos:station:TCOON:005:1,2017-06-06T08:18:00Z,27.6346,-97.2370,1.084,1111122 
TCOON,ioos:station:TCOON:005:1,2017-06-06T09:18:00Z,27.6346,-97.2370,1.097,1111122 
TCOON,ioos:station:TCOON:005:1,2017-06-06T10:18:00Z,27.6346,-97.2370,1.109,1111122 
TCOON,ioos:station:TCOON:005:1,2017-06-06T11:18:00Z,27.6346,-97.2370,1.123,1111122 
TCOON,ioos:station:TCOON:005:1,2017-06-06T12:18:00Z,27.6346,-97.2370,1.139,1111122 
TCOON,ioos:station:TCOON:005:1,2017-06-06T13:18:00Z,27.6346,-97.2370,1.14,1111122 
TCOON,ioos:station:TCOON:005:1,2017-06-06T14:18:00Z,27.6346,-97.2370,1.151,1111122 
TCOON,ioos:station:TCOON:005:1,2017-06-06T15:18:00Z,27.6346,-97.2370,1.154,1111122 
TCOON,ioos:station:TCOON:005:1,2017-06-06T16:18:00Z,27.6346,-97.2370,1.158,1111122 
TCOON,ioos:station:TCOON:005:1,2017-06-06T17:18:00Z,27.6346,-97.2370,1.152,1111122 
TCOON,ioos:station:TCOON:005:1,2017-06-06T18:18:00Z,27.6346,-97.2370,1.153,1111122 
TCOON,ioos:station:TCOON:005:1,2017-06-06T19:18:00Z,27.6346,-97.2370,1.146,1111122 
TCOON,ioos:station:TCOON:005:1,2017-06-06T20:18:00Z,27.6346,-97.2370,1.145,1111122 
TCOON,ioos:station:TCOON:005:1,2017-06-06T21:18:00Z,27.6346,-97.2370,1.14,1111122 
TCOON,ioos:station:TCOON:005:1,2017-06-06T22:18:00Z,27.6346,-97.2370,1.135,1111122 
TCOON,ioos:station:TCOON:005:1,2017-06-06T23:18:00Z,27.6346,-97.2370,1.123,1111122 
TCOON,ioos:station:TCOON:005:1,2017-06-07T00:18:00Z,27.6346,-97.2370,1.111,1111122 
TCOON,ioos:station:TCOON:005:1,2017-06-07T01:18:00Z,27.6346,-97.2370,1.101,1111122 
TCOON,ioos:station:TCOON:005:1,2017-06-07T02:18:00Z,27.6346,-97.2370,1.079,1111122 
TCOON,ioos:station:TCOON:005:1,2017-06-07T03:18:00Z,27.6346,-97.2370,1.056,1111122 
TCOON,ioos:station:TCOON:005:1,2017-06-07T04:18:00Z,27.6346,-97.2370,1.04,1111122 
TCOON,ioos:station:TCOON:005:1,2017-06-07T05:18:00Z,27.6346,-97.2370,1.024,1111122 
TCOON,ioos:station:TCOON:005:1,2017-06-07T06:18:00Z,27.6346,-97.2370,1.027,1111122 
TCOON,ioos:station:TCOON:005:1,2017-06-07T07:18:00Z,27.6346,-97.2370,1.03,1111122 
TCOON,ioos:station:TCOON:005:1,2017-06-07T08:18:00Z,27.6346,-97.2370,1.036,1111122 
TCOON,ioos:station:TCOON:005:1,2017-06-07T09:18:00Z,27.6346,-97.2370,1.048,1111122 
TCOON,ioos:station:TCOON:005:1,2017-06-07T10:18:00Z,27.6346,-97.2370,1.063,1111122 
TCOON,ioos:station:TCOON:005:1,2017-06-07T11:18:00Z,27.6346,-97.2370,1.078,1111122 
TCOON,ioos:station:TCOON:005:1,2017-06-07T12:18:00Z,27.6346,-97.2370,1.096,1111122 
TCOON,ioos:station:TCOON:005:1,2017-06-07T13:18:00Z,27.6346,-97.2370,1.111,1111122 
TCOON,ioos:station:TCOON:005:1,2017-06-07T14:18:00Z,27.6346,-97.2370,1.119,1111122 
TCOON,ioos:station:TCOON:005:1,2017-06-07T15:18:00Z,27.6346,-97.2370,1.126,1111122 
TCOON,ioos:station:TCOON:005:1,2017-06-07T16:18:00Z,27.6346,-97.2370,1.132,1111122 
TCOON,ioos:station:TCOON:005:1,2017-06-07T17:18:00Z,27.6346,-97.2370,1.132,1111122 
TCOON,ioos:station:TCOON:005:1,2017-06-07T18:18:00Z,27.6346,-97.2370,1.134,1111122 
TCOON,ioos:station:TCOON:005:1,2017-06-07T19:18:00Z,27.6346,-97.2370,1.131,1111122 
TCOON,ioos:station:TCOON:005:1,2017-06-07T20:18:00Z,27.6346,-97.2370,1.126,1111122 
TCOON,ioos:station:TCOON:005:1,2017-06-07T21:18:00Z,27.6346,-97.2370,1.129,1111122 
TCOON,ioos:station:TCOON:005:1,2017-06-07T22:18:00Z,27.6346,-97.2370,1.114,1111122 
TCOON,ioos:station:TCOON:005:1,2017-06-07T23:18:00Z,27.6346,-97.2370,1.099,1111122 
TCOON,ioos:station:TCOON:005:1,2017-06-08T00:18:00Z,27.6346,-97.2370,1.08,1111122 
TCOON,ioos:station:TCOON:005:1,2017-06-08T01:18:00Z,27.6346,-97.2370,1.064,1111122 
TCOON,ioos:station:TCOON:005:1,2017-06-08T02:18:00Z,27.6346,-97.2370,1.047,1111122 
TCOON,ioos:station:TCOON:005:1,2017-06-08T03:18:00Z,27.6346,-97.2370,1.032,1111122 
TCOON,ioos:station:TCOON:005:1,2017-06-08T04:18:00Z,27.6346,-97.2370,1.021,1111122 
TCOON,ioos:station:TCOON:005:1,2017-06-08T05:18:00Z,27.6346,-97.2370,1.015,1111122 
TCOON,ioos:station:TCOON:005:1,2017-06-08T06:18:00Z,27.6346,-97.2370,1.019,1111122 
TCOON,ioos:station:TCOON:005:1,2017-06-08T07:18:00Z,27.6346,-97.2370,1.023,1111122 
TCOON,ioos:station:TCOON:005:1,2017-06-08T08:18:00Z,27.6346,-97.2370,1.028,1111122 
TCOON,ioos:station:TCOON:005:1,2017-06-08T09:18:00Z,27.6346,-97.2370,1.036,1111122 
TCOON,ioos:station:TCOON:005:1,2017-06-08T10:12:00Z,27.6346,-97.2370,1.043,1111122 
TCOON,ioos:station:TCOON:005:1,2017-06-08T11:18:00Z,27.6346,-97.2370,1.059,1111122 
TCOON,ioos:station:TCOON:005:1,2017-06-08T12:18:00Z,27.6346,-97.2370,1.076,1111122 
TCOON,ioos:station:TCOON:005:1,2017-06-08T13:18:00Z,27.6346,-97.2370,1.087,1111122 
TCOON,ioos:station:TCOON:005:1,2017-06-08T14:18:00Z,27.6346,-97.2370,1.1,1111122 
TCOON,ioos:station:TCOON:005:1,2017-06-08T15:18:00Z,27.6346,-97.2370,1.118,1111122 
TCOON,ioos:station:TCOON:005:1,2017-06-08T16:18:00Z,27.6346,-97.2370,1.125,1111122 
TCOON,ioos:station:TCOON:005:1,2017-06-08T17:18:00Z,27.6346,-97.2370,1.131,1111122 
TCOON,ioos:station:TCOON:005:1,2017-06-08T18:18:00Z,27.6346,-97.2370,1.14,1111122 
TCOON,ioos:station:TCOON:005:1,2017-06-08T19:18:00Z,27.6346,-97.2370,1.145,1111122 
TCOON,ioos:station:TCOON:005:1,2017-06-08T20:18:00Z,27.6346,-97.2370,1.146,1111122 
TCOON,ioos:station:TCOON:005:1,2017-06-08T21:18:00Z,27.6346,-97.2370,1.139,1111122 
TCOON,ioos:station:TCOON:005:1,2017-06-08T22:18:00Z,27.6346,-97.2370,1.135,1111122 
TCOON,ioos:station:TCOON:005:1,2017-06-08T23:18:00Z,27.6346,-97.2370,1.123,1111122 
TCOON,ioos:station:TCOON:005:1,2017-06-09T00:18:00Z,27.6346,-97.2370,1.107,1111122 
TCOON,ioos:station:TCOON:005:1,2017-06-09T01:18:00Z,27.6346,-97.2370,1.087,1111122 
TCOON,ioos:station:TCOON:005:1,2017-06-09T02:18:00Z,27.6346,-97.2370,1.066,1111122 
TCOON,ioos:station:TCOON:005:1,2017-06-09T03:18:00Z,27.6346,-97.2370,1.047,1111122 
TCOON,ioos:station:TCOON:005:1,2017-06-09T04:18:00Z,27.6346,-97.2370,1.029,1111122 
TCOON,ioos:station:TCOON:005:1,2017-06-09T05:18:00Z,27.6346,-97.2370,1.016,1111122 
TCOON,ioos:station:TCOON:005:1,2017-06-09T06:18:00Z,27.6346,-97.2370,1.013,1111122 
TCOON,ioos:station:TCOON:005:1,2017-06-09T07:18:00Z,27.6346,-97.2370,1.018,1111122 
TCOON,ioos:station:TCOON:005:1,2017-06-09T08:18:00Z,27.6346,-97.2370,1.019,1111122 
TCOON,ioos:station:TCOON:005:1,2017-06-09T09:18:00Z,27.6346,-97.2370,1.024,1111122 
TCOON,ioos:station:TCOON:005:1,2017-06-09T10:18:00Z,27.6346,-97.2370,1.042,1111122 
TCOON,ioos:station:TCOON:005:1,2017-06-09T11:18:00Z,27.6346,-97.2370,1.064,1111122 
TCOON,ioos:station:TCOON:005:1,2017-06-09T12:18:00Z,27.6346,-97.2370,1.088,1111122 
TCOON,ioos:station:TCOON:005:1,2017-06-09T13:18:00Z,27.6346,-97.2370,1.104,1111122 
TCOON,ioos:station:TCOON:005:1,2017-06-09T14:18:00Z,27.6346,-97.2370,1.122,1111122 
TCOON,ioos:station:TCOON:005:1,2017-06-09T15:18:00Z,27.6346,-97.2370,1.141,1111122 
TCOON,ioos:station:TCOON:005:1,2017-06-09T16:18:00Z,27.6346,-97.2370,1.155,1111122 
TCOON,ioos:station:TCOON:005:1,2017-06-09T17:18:00Z,27.6346,-97.2370,1.166,1111122 
TCOON,ioos:station:TCOON:005:1,2017-06-09T18:18:00Z,27.6346,-97.2370,1.175,1111122 
TCOON,ioos:station:TCOON:005:1,2017-06-09T19:18:00Z,27.6346,-97.2370,1.189,1111122 
TCOON,ioos:station:TCOON:005:1,2017-06-09T20:18:00Z,27.6346,-97.2370,1.182,1111122 
TCOON,ioos:station:TCOON:005:1,2017-06-09T21:18:00Z,27.6346,-97.2370,1.181,1111122 
TCOON,ioos:station:TCOON:005:1,2017-06-09T22:18:00Z,27.6346,-97.2370,1.18,1111122 
TCOON,ioos:station:TCOON:005:1,2017-06-09T23:18:00Z,27.6346,-97.2370,1.165,1111122 
TCOON,ioos:station:TCOON:005:1,2017-06-10T00:18:00Z,27.6346,-97.2370,1.144,1111122 
TCOON,ioos:station:TCOON:005:1,2017-06-10T01:18:00Z,27.6346,-97.2370,1.125,1111122 
TCOON,ioos:station:TCOON:005:1,2017-06-10T02:18:00Z,27.6346,-97.2370,1.109,1111122 
TCOON,ioos:station:TCOON:005:1,2017-06-10T03:18:00Z,27.6346,-97.2370,1.098,1111122 
TCOON,ioos:station:TCOON:005:1,2017-06-10T04:18:00Z,27.6346,-97.2370,1.086,1111122 
TCOON,ioos:station:TCOON:005:1,2017-06-10T05:18:00Z,27.6346,-97.2370,1.068,1111122 
TCOON,ioos:station:TCOON:005:1,2017-06-10T06:18:00Z,27.6346,-97.2370,1.06,1111122 
TCOON,ioos:station:TCOON:005:1,2017-06-10T07:18:00Z,27.6346,-97.2370,1.062,1111122 
TCOON,ioos:station:TCOON:005:1,2017-06-10T08:18:00Z,27.6346,-97.2370,1.066,1111122 
TCOON,ioos:station:TCOON:005:1,2017-06-10T09:18:00Z,27.6346,-97.2370,1.068,1111122 
TCOON,ioos:station:TCOON:005:1,2017-06-10T10:18:00Z,27.6346,-97.2370,1.076,1111122 
TCOON,ioos:station:TCOON:005:1,2017-06-10T11:18:00Z,27.6346,-97.2370,1.088,1111122 
TCOON,ioos:station:TCOON:005:1,2017-06-10T12:18:00Z,27.6346,-97.2370,1.108,1111122 
TCOON,ioos:station:TCOON:005:1,2017-06-10T22:18:00Z,27.6346,-97.2370,1.186,1111122 
TCOON,ioos:station:TCOON:005:1,2017-06-10T23:18:00Z,27.6346,-97.2370,1.177,1111122 
TCOON,ioos:station:TCOON:005:1,2017-06-11T00:18:00Z,27.6346,-97.2370,1.165,1111122 
TCOON,ioos:station:TCOON:005:1,2017-06-11T01:18:00Z,27.6346,-97.2370,1.144,1111122 
TCOON,ioos:station:TCOON:005:1,2017-06-11T02:18:00Z,27.6346,-97.2370,1.124,1111122 
TCOON,ioos:station:TCOON:005:1,2017-06-11T03:18:00Z,27.6346,-97.2370,1.103,1111122 
TCOON,ioos:station:TCOON:005:1,2017-06-11T04:18:00Z,27.6346,-97.2370,1.086,1111122 
TCOON,ioos:station:TCOON:005:1,2017-06-11T05:12:00Z,27.6346,-97.2370,1.074,1111122 
TCOON,ioos:station:TCOON:005:1,2017-06-11T06:18:00Z,27.6346,-97.2370,1.063,1111122 
TCOON,ioos:station:TCOON:005:1,2017-06-11T07:18:00Z,27.6346,-97.2370,1.059,1111122 
TCOON,ioos:station:TCOON:005:1,2017-06-11T08:18:00Z,27.6346,-97.2370,1.063,1111122 
TCOON,ioos:station:TCOON:005:1,2017-06-11T09:18:00Z,27.6346,-97.2370,1.068,1111122 
TCOON,ioos:station:TCOON:005:1,2017-06-11T10:18:00Z,27.6346,-97.2370,1.072,1111122 
TCOON,ioos:station:TCOON:005:1,2017-06-11T11:18:00Z,27.6346,-97.2370,1.08,1111122 
TCOON,ioos:station:TCOON:005:1,2017-06-11T12:18:00Z,27.6346,-97.2370,1.095,1111122 
TCOON,ioos:station:TCOON:005:1,2017-06-11T13:18:00Z,27.6346,-97.2370,1.109,1111122 
TCOON,ioos:station:TCOON:005:1,2017-06-11T14:18:00Z,27.6346,-97.2370,1.129,1111122 
TCOON,ioos:station:TCOON:005:1,2017-06-11T15:18:00Z,27.6346,-97.2370,1.149,1111122 
TCOON,ioos:station:TCOON:005:1,2017-06-11T16:18:00Z,27.6346,-97.2370,1.166,1111122 
TCOON,ioos:station:TCOON:005:1,2017-06-11T17:18:00Z,27.6346,-97.2370,1.175,1111122 
TCOON,ioos:station:TCOON:005:1,2017-06-11T18:12:00Z,27.6346,-97.2370,1.181,1111122 
TCOON,ioos:station:TCOON:005:1,2017-06-11T19:18:00Z,27.6346,-97.2370,1.192,1111122 
TCOON,ioos:station:TCOON:005:1,2017-06-11T20:18:00Z,27.6346,-97.2370,1.205,1111122 
TCOON,ioos:station:TCOON:005:1,2017-06-11T21:18:00Z,27.6346,-97.2370,1.211,1111122 
TCOON,ioos:station:TCOON:005:1,2017-06-11T22:18:00Z,27.6346,-97.2370,1.211,1111122 
TCOON,ioos:station:TCOON:005:1,2017-06-11T23:18:00Z,27.6346,-97.2370,1.206,1111122 
TCOON,ioos:station:TCOON:005:1,2017-06-12T00:18:00Z,27.6346,-97.2370,1.195,1111122 
TCOON,ioos:station:TCOON:005:1,2017-06-12T01:18:00Z,27.6346,-97.2370,1.176,1111122 
TCOON,ioos:station:TCOON:005:1,2017-06-12T02:18:00Z,27.6346,-97.2370,1.157,1111122 
TCOON,ioos:station:TCOON:005:1,2017-06-12T03:18:00Z,27.6346,-97.2370,1.135,1111122 
TCOON,ioos:station:TCOON:005:1,2017-06-12T04:18:00Z,27.6346,-97.2370,1.117,1111122 
TCOON,ioos:station:TCOON:005:1,2017-06-12T05:18:00Z,27.6346,-97.2370,1.1,1111122 
TCOON,ioos:station:TCOON:005:1,2017-06-12T06:18:00Z,27.6346,-97.2370,1.082,1111122 
TCOON,ioos:station:TCOON:005:1,2017-06-12T07:18:00Z,27.6346,-97.2370,1.075,1111122 
TCOON,ioos:station:TCOON:005:1,2017-06-12T08:18:00Z,27.6346,-97.2370,1.079,1111122 
TCOON,ioos:station:TCOON:005:1,2017-06-12T09:18:00Z,27.6346,-97.2370,1.085,1111122 
TCOON,ioos:station:TCOON:005:1,2017-06-12T10:18:00Z,27.6346,-97.2370,1.09,1111122 
TCOON,ioos:station:TCOON:005:1,2017-06-12T11:18:00Z,27.6346,-97.2370,1.097,1111122 
TCOON,ioos:station:TCOON:005:1,2017-06-12T12:18:00Z,27.6346,-97.2370,1.105,1111122 
TCOON,ioos:station:TCOON:005:1,2017-06-12T13:18:00Z,27.6346,-97.2370,1.119,1111122 
TCOON,ioos:station:TCOON:005:1,2017-06-12T14:18:00Z,27.6346,-97.2370,1.135,1111122 
TCOON,ioos:station:TCOON:005:1,2017-06-12T15:18:00Z,27.6346,-97.2370,1.154,1111122 
TCOON,ioos:station:TCOON:005:1,2017-06-12T16:18:00Z,27.6346,-97.2370,1.168,1111122 
TCOON,ioos:station:TCOON:005:1,2017-06-12T17:18:00Z,27.6346,-97.2370,1.178,1111122 
TCOON,ioos:station:TCOON:005:1,2017-06-12T18:18:00Z,27.6346,-97.2370,1.186,1111122 
TCOON,ioos:station:TCOON:005:1,2017-06-13T15:18:00Z,27.6346,-97.2370,1.142,1111122 
TCOON,ioos:station:TCOON:005:1,2017-06-13T16:18:00Z,27.6346,-97.2370,1.152,1111122 
TCOON,ioos:station:TCOON:005:1,2017-06-13T17:18:00Z,27.6346,-97.2370,1.167,1111122 
TCOON,ioos:station:TCOON:005:1,2017-06-13T18:18:00Z,27.6346,-97.2370,1.181,1111122 
TCOON,ioos:station:TCOON:005:1,2017-06-13T19:18:00Z,27.6346,-97.2370,1.196,1111122 
TCOON,ioos:station:TCOON:005:1,2017-06-13T20:18:00Z,27.6346,-97.2370,1.198,1111122 
TCOON,ioos:station:TCOON:005:1,2017-06-13T21:18:00Z,27.6346,-97.2370,1.203,1111122 
TCOON,ioos:station:TCOON:005:1,2017-06-13T22:18:00Z,27.6346,-97.2370,1.2,1111122 
TCOON,ioos:station:TCOON:005:1,2017-06-13T23:18:00Z,27.6346,-97.2370,1.198,1111122 
TCOON,ioos:station:TCOON:005:1,2017-06-14T00:18:00Z,27.6346,-97.2370,1.19,1111122 
TCOON,ioos:station:TCOON:005:1,2017-06-14T01:18:00Z,27.6346,-97.2370,1.18,1111122 